Wind_Speed
33 34 32 32 32 32 32 31 31 31 26 27 24 23 22 19 18 16 15 15 14 14 14 13 13 13 14 13 13 12 11 12 13 13 10 5 6 7 6 8 2 7 8 6 3 7 9
32 35 34 33 33 32 32 32 32 32 33 30 26 24 23 22 20 18 17 14 14 15 15 14 14 15 15 15 13 12 12 14 15 15 11 8 7 5 5 6 4 2 3 6 4 6 6
32 32 35 35 34 34 33 32 32 33 32 32 31 28 25 24 21 21 21 19 15 15 15 15 15 16 17 16 15 14 14 14 15 16 14 12 10 10 8 7 4 4 6 6 3 4 3
32 32 33 35 36 35 35 34 34 33 33 32 32 31 30 27 25 23 24 22 19 17 16 17 17 18 18 19 17 16 16 15 15 15 17 16 14 11 13 11 7 7 10 8 7 5 4
32 33 33 34 37 37 37 36 35 34 33 33 33 32 31 30 27 26 24 25 24 20 18 18 18 19 20 20 19 17 16 15 14 15 15 16 14 10 12 13 13 15 12 9 6 6 6
29 31 34 35 36 38 38 37 36 36 35 34 33 33 33 31 28 28 25 25 23 23 18 18 19 20 21 20 20 19 17 16 15 14 14 14 12 11 12 11 17 19 14 13 14 14 12
23 24 26 30 36 38 40 40 38 37 36 35 33 33 32 32 32 31 28 27 23 22 22 20 20 20 20 22 23 22 20 18 16 16 16 15 11 12 15 15 18 20 16 15 16 13 9
21 21 22 23 28 35 39 40 40 39 38 37 36 35 33 32 33 33 30 28 26 24 24 22 20 20 20 22 23 24 22 20 19 19 17 15 14 19 18 19 16 22 20 17 18 18 15
19 19 21 21 23 27 35 38 40 40 39 37 37 37 37 36 36 34 31 29 28 27 27 26 21 20 22 22 23 24 23 23 21 19 17 15 20 22 23 23 19 22 21 19 20 23 20
19 22 19 19 19 23 27 32 35 38 38 38 38 38 38 38 39 37 34 30 30 30 29 26 26 23 22 23 23 24 24 22 22 21 19 21 23 23 23 23 22 21 22 23 22 22 23
21 23 20 19 19 20 21 27 31 34 36 36 36 36 37 37 38 37 35 37 36 31 29 29 29 26 23 22 24 25 24 23 22 22 20 23 22 22 23 23 22 22 21 23 24 23 22
21 22 23 22 21 21 21 22 24 27 30 33 35 35 37 37 38 37 35 38 37 35 31 29 28 28 26 22 24 26 26 26 26 25 23 24 22 21 22 19 18 19 20 22 21 15 19
17 22 24 25 25 25 25 25 25 25 26 28 28 30 31 32 32 33 36 39 38 39 33 33 29 29 28 27 26 26 26 25 24 25 22 23 22 21 21 15 16 20 18 20 18 16 18
14 15 19 23 28 30 28 26 26 27 28 26 27 29 30 30 28 28 33 39 42 35 34 34 31 27 28 28 29 26 28 26 25 25 24 25 23 23 19 15 21 22 22 21 17 15 17
16 18 19 19 20 22 24 26 28 29 29 29 31 31 30 26 27 28 30 36 40 37 35 33 31 30 29 30 31 31 27 26 26 25 23 23 23 23 22 20 23 19 23 20 17 17 16
15 16 18 20 23 25 25 24 25 26 29 29 31 33 32 30 28 29 30 29 33 38 37 34 34 34 32 32 32 33 31 27 26 24 24 24 22 24 24 25 25 22 22 19 17 18 15
20 18 18 19 22 24 27 29 28 27 28 29 30 31 36 34 33 32 29 24 26 35 39 38 37 36 35 35 34 32 34 30 28 27 26 24 24 26 26 29 25 21 20 22 22 19 15
20 19 19 20 21 25 26 28 30 31 32 30 31 31 33 36 36 34 29 23 25 32 39 42 40 38 37 35 35 34 35 30 27 30 32 27 27 28 27 27 23 23 20 22 21 17 17
21 21 20 21 21 21 23 26 28 30 33 34 33 34 33 35 36 35 33 28 28 30 37 43 42 41 38 36 34 34 32 32 33 32 31 30 30 29 27 24 24 26 25 21 18 17 17
23 22 21 21 19 18 16 15 18 23 32 36 36 36 35 35 36 36 35 33 29 32 32 39 42 43 40 39 36 35 32 26 31 34 29 32 32 32 29 24 26 26 27 26 23 19 16
23 22 18 18 18 18 17 17 18 19 24 28 32 35 35 36 38 36 35 36 32 31 32 34 41 43 41 41 36 33 30 27 29 29 27 30 31 31 32 27 26 25 25 26 25 26 25
22 21 18 17 17 18 17 18 18 20 21 25 30 30 34 37 37 34 34 35 35 36 36 34 39 45 43 42 39 34 33 31 27 29 29 31 29 28 31 34 31 28 28 26 27 26 28
22 20 17 18 18 16 17 17 18 19 22 25 28 30 32 34 36 33 33 35 38 39 36 34 35 47 45 42 42 37 37 33 32 30 28 27 26 26 24 29 32 34 33 32 30 28 27
23 20 17 17 17 16 16 16 16 18 21 26 28 28 31 33 33 35 33 35 40 41 38 34 34 45 47 44 43 43 41 38 35 33 30 28 29 27 26 26 28 30 30 30 29 30 32
22 21 18 16 17 15 16 14 14 16 18 26 27 27 29 32 32 35 34 33 39 42 39 35 36 39 42 46 43 45 40 36 36 36 34 32 33 33 31 30 31 30 30 31 32 32 33
22 20 19 17 17 16 16 14 13 15 15 20 27 27 28 31 32 34 35 32 36 40 41 40 39 36 35 41 46 45 41 39 35 38 37 34 36 37 37 34 35 34 34 37 37 36 37
23 21 19 18 17 17 17 16 15 15 15 15 25 26 27 29 31 32 35 37 34 38 40 41 38 38 37 36 39 43 47 42 41 40 36 39 41 42 41 40 39 38 36 37 38 37 35
24 24 21 20 19 18 19 17 16 15 15 16 16 28 27 27 29 31 33 35 38 36 39 38 39 37 39 37 35 36 41 50 49 48 44 43 44 47 46 47 41 34 39 39 40 42 38
28 26 25 24 21 19 20 19 17 16 15 15 15 18 29 28 28 30 32 33 37 40 36 38 37 39 38 38 38 36 36 39 44 49 51 51 52 48 44 37 42 42 42 41 40 37 37
Wind_Direction
226 226 225 222 221 221 221 222 223 222 220 221 227 231 228 229 225 224 225 233 237 232 230 221 216 215 214 210 212 208 199 195 203 211 213 209 137 174 136 123 105 248 259 253 122 90 78
226 227 226 226 225 223 223 224 224 223 222 223 226 226 229 228 219 223 222 227 232 231 230 227 217 216 214 213 209 208 203 200 205 212 217 214 148 174 146 136 89 122 212 239 244 106 110
225 226 228 228 228 227 225 226 227 227 227 227 228 228 230 230 224 224 225 227 235 238 232 229 222 215 216 211 206 204 203 205 206 213 215 222 203 185 170 150 133 284 212 183 167 143 121
228 227 227 228 229 229 229 228 229 229 229 229 229 230 230 231 229 228 230 233 229 238 236 234 225 219 215 215 209 203 201 202 207 213 220 227 227 205 193 186 182 245 227 207 225 210 231
228 230 229 228 229 230 230 230 230 230 230 230 229 229 231 232 232 231 232 236 236 232 235 233 230 222 217 218 213 215 209 204 208 214 218 226 235 229 204 194 186 210 213 204 228 256 275
230 231 232 231 231 230 230 231 231 232 232 231 231 231 232 232 232 233 232 234 233 225 233 235 233 228 220 220 218 218 221 213 211 214 221 224 221 220 216 201 199 211 222 222 235 236 261
225 228 232 235 234 232 231 230 231 232 233 232 232 232 233 233 233 234 233 233 231 225 233 234 232 231 223 223 218 218 215 221 214 217 220 222 213 222 219 213 215 213 227 232 245 248 252
228 231 233 237 238 234 232 230 230 231 232 233 232 233 233 233 235 235 234 232 230 223 225 229 229 232 227 226 223 225 220 215 220 220 219 219 206 218 225 230 226 219 229 247 252 270 277
227 233 236 238 240 237 232 231 232 231 231 232 233 234 234 233 235 234 234 235 232 228 223 227 230 231 226 227 228 222 228 224 221 224 224 216 216 219 218 233 232 229 233 247 258 273 276
254 230 235 239 241 239 234 231 232 234 234 233 233 233 234 234 235 235 234 234 232 230 226 224 226 227 226 222 227 224 225 226 224 224 224 219 222 229 233 234 238 238 231 249 260 272 268
242 229 234 238 240 240 235 232 231 232 233 233 234 234 234 233 234 235 232 233 233 230 229 223 228 227 229 226 223 228 228 225 226 225 224 232 229 234 241 240 244 243 244 247 260 272 272
237 237 240 241 242 241 237 233 230 229 231 233 235 235 236 235 235 233 230 232 231 231 229 228 225 227 226 224 225 229 225 226 227 228 225 230 233 233 241 248 252 251 245 261 267 274 261
247 244 245 244 244 242 242 242 240 235 232 231 232 234 234 235 235 234 231 230 230 228 227 228 228 224 224 219 220 223 227 227 232 234 230 235 237 236 234 239 247 252 252 257 252 251 262
249 245 242 243 244 246 243 243 241 241 241 237 233 232 232 232 232 233 232 230 229 225 226 228 229 226 228 224 224 217 221 224 226 231 225 231 233 237 235 234 243 252 248 249 251 250 259
267 259 254 251 250 248 244 244 244 246 245 240 234 234 234 233 231 233 236 234 229 225 223 225 226 226 226 228 227 224 221 221 223 226 229 229 232 237 240 230 236 237 240 239 246 246 252
273 270 268 262 258 253 248 246 245 241 240 241 235 232 235 234 231 234 237 239 232 226 222 220 222 225 223 227 228 228 227 222 225 227 226 226 222 229 232 228 232 227 233 236 243 250 253
258 264 269 273 272 265 258 253 247 243 243 239 237 239 234 232 232 235 236 238 233 225 220 219 221 224 223 225 229 231 229 228 226 227 229 226 229 226 227 227 225 235 236 239 242 250 264
264 261 265 269 272 268 263 258 252 247 244 241 239 235 235 232 231 234 234 231 228 221 218 220 218 224 223 223 228 231 233 230 226 228 229 227 229 224 220 224 228 220 224 236 245 257 265
262 264 266 269 270 265 261 259 256 252 248 244 240 236 231 230 233 232 229 226 221 216 218 221 217 219 224 225 225 229 232 231 229 230 231 225 221 214 215 220 226 235 238 240 251 255 262
255 257 263 270 276 283 286 276 264 251 245 244 240 240 234 230 229 231 226 222 223 219 223 223 219 217 222 225 224 227 232 234 227 226 226 228 219 214 219 220 228 235 241 245 251 251 260
264 269 275 285 294 301 308 302 288 268 247 245 244 238 236 232 228 226 228 222 223 225 227 229 225 218 219 223 225 224 223 226 221 220 219 228 228 217 210 213 226 238 244 244 253 263 269
266 272 279 286 292 298 304 304 294 276 261 250 245 236 234 233 230 223 221 220 219 223 225 230 224 221 216 219 220 219 221 222 216 214 217 218 221 224 216 215 221 233 243 252 253 259 271
267 272 280 287 289 297 303 307 302 281 262 246 240 235 232 231 228 223 216 214 216 220 224 232 228 223 216 214 215 217 222 221 217 216 219 223 226 229 228 230 229 233 240 248 256 266 275
264 271 278 285 286 294 298 302 305 289 262 241 234 233 233 228 224 223 217 211 213 216 220 227 230 226 220 215 212 214 223 224 223 227 233 238 228 228 236 241 239 242 246 253 263 268 270
260 267 273 281 282 286 291 296 301 293 272 240 234 233 233 226 222 217 218 217 216 211 217 221 230 231 225 223 218 214 215 218 225 230 238 244 240 237 238 246 251 250 253 260 267 270 272
253 260 266 273 276 280 283 287 293 296 281 251 234 233 232 228 223 217 216 215 221 215 211 215 222 227 227 227 227 222 220 218 215 226 234 229 232 234 238 236 244 251 260 267 268 268 279
247 254 259 265 270 274 278 280 279 287 284 269 236 233 233 230 225 222 218 216 218 223 217 211 219 223 228 228 226 228 227 225 228 226 224 224 225 229 233 235 243 250 264 266 265 273 283
245 250 255 260 264 269 273 276 274 275 283 274 260 233 233 231 228 225 222 219 218 222 222 216 216 219 225 230 231 227 228 229 231 231 232 232 234 234 231 234 239 252 259 266 267 271 277
243 245 251 258 258 264 269 270 268 265 279 274 267 250 233 233 229 227 225 219 223 221 224 222 220 218 223 226 231 232 231 230 232 237 237 242 244 246 252 257 253 261 264 262 267 270 275
Height
5828 5832 5837 5841 5846 5849 5853 5857 5861 5865 5868 5872 5875 5878 5880 5883 5886 5888 5890 5892 5893 5894 5895 5896 5898 5900 5902 5904 5906 5907 5909 5911 5914 5916 5919 5922 5926 5928 5930 5930 5932 5933 5934 5934 5935 5935 5934
5824 5828 5832 5836 5840 5845 5849 5852 5856 5860 5864 5868 5871 5874 5877 5880 5883 5885 5887 5889 5891 5892 5894 5895 5897 5899 5901 5904 5905 5907 5908 5911 5913 5916 5918 5922 5926 5927 5929 5931 5933 5934 5934 5935 5934 5935 5935
5820 5823 5827 5831 5835 5840 5844 5848 5852 5856 5859 5863 5867 5871 5874 5876 5880 5882 5884 5886 5888 5890 5892 5893 5895 5898 5900 5903 5904 5906 5908 5910 5912 5914 5917 5920 5924 5927 5928 5930 5932 5933 5934 5934 5934 5934 5935
5815 5819 5822 5826 5830 5834 5839 5842 5847 5851 5855 5858 5862 5866 5870 5873 5876 5879 5881 5882 5885 5887 5889 5892 5894 5897 5899 5901 5903 5906 5908 5910 5912 5914 5917 5919 5921 5925 5927 5928 5930 5931 5933 5932 5933 5934 5934
5810 5813 5817 5820 5824 5828 5833 5837 5841 5845 5850 5853 5857 5861 5865 5868 5871 5874 5877 5879 5882 5885 5888 5890 5892 5895 5897 5900 5903 5905 5907 5910 5911 5913 5915 5918 5920 5924 5925 5927 5928 5929 5931 5931 5932 5932 5934
5804 5808 5811 5815 5818 5822 5826 5831 5835 5840 5844 5848 5852 5856 5860 5864 5866 5869 5873 5875 5879 5882 5886 5887 5889 5893 5896 5898 5901 5904 5907 5909 5911 5913 5915 5917 5919 5921 5923 5925 5926 5927 5930 5930 5931 5932 5933
5800 5803 5806 5809 5812 5816 5820 5824 5829 5834 5838 5842 5846 5850 5854 5858 5861 5865 5870 5873 5877 5880 5882 5884 5886 5889 5892 5894 5897 5901 5904 5907 5910 5912 5914 5916 5919 5920 5920 5922 5924 5926 5927 5928 5929 5930 5931
5796 5798 5801 5803 5806 5809 5812 5817 5822 5827 5832 5836 5840 5844 5849 5853 5856 5860 5865 5868 5873 5876 5877 5880 5882 5885 5888 5891 5895 5897 5901 5904 5907 5909 5911 5915 5917 5916 5919 5920 5922 5924 5925 5927 5928 5928 5929
5792 5794 5796 5799 5800 5802 5806 5811 5816 5821 5826 5830 5834 5839 5843 5847 5849 5855 5859 5864 5867 5869 5873 5877 5879 5882 5885 5888 5891 5894 5897 5900 5903 5907 5910 5913 5914 5914 5915 5917 5920 5922 5924 5925 5926 5926 5927
5788 5790 5792 5795 5796 5798 5800 5804 5809 5814 5819 5824 5828 5833 5836 5841 5845 5848 5854 5858 5861 5864 5869 5874 5876 5878 5881 5883 5886 5889 5893 5898 5900 5903 5906 5909 5910 5911 5913 5916 5919 5920 5923 5923 5923 5925 5925
5785 5787 5789 5791 5792 5794 5797 5800 5804 5808 5813 5817 5821 5825 5829 5834 5837 5842 5848 5851 5854 5860 5863 5869 5870 5874 5877 5882 5883 5886 5889 5894 5897 5899 5903 5906 5908 5910 5912 5914 5916 5918 5919 5920 5921 5922 5922
5781 5783 5786 5788 5789 5792 5794 5796 5799 5803 5806 5810 5814 5818 5821 5826 5830 5835 5840 5842 5848 5854 5857 5861 5865 5868 5873 5877 5878 5881 5885 5888 5891 5895 5898 5901 5904 5907 5909 5911 5913 5915 5916 5917 5919 5919 5919
5776 5778 5780 5782 5785 5787 5790 5792 5795 5798 5801 5804 5808 5811 5815 5818 5823 5827 5831 5835 5840 5843 5854 5857 5860 5864 5868 5871 5873 5877 5881 5885 5889 5892 5896 5898 5901 5903 5905 5908 5910 5911 5912 5914 5915 5915 5915
5774 5774 5776 5777 5779 5782 5784 5787 5790 5793 5795 5799 5802 5805 5808 5812 5817 5819 5823 5827 5831 5840 5845 5850 5855 5860 5864 5867 5870 5873 5876 5880 5884 5888 5892 5894 5897 5899 5903 5905 5906 5908 5910 5910 5910 5912 5913
5771 5772 5772 5773 5775 5776 5778 5780 5783 5786 5789 5792 5796 5799 5802 5807 5810 5812 5815 5818 5825 5833 5839 5845 5850 5854 5857 5861 5865 5869 5872 5876 5879 5884 5888 5891 5893 5895 5898 5901 5902 5903 5905 5906 5907 5908 5909
5767 5768 5769 5769 5770 5771 5773 5775 5777 5779 5782 5785 5788 5792 5796 5800 5803 5805 5808 5813 5819 5825 5832 5838 5842 5847 5852 5855 5859 5863 5868 5873 5876 5879 5882 5886 5889 5892 5893 5895 5898 5899 5902 5903 5903 5904 5906
5763 5763 5764 5764 5765 5765 5766 5768 5770 5772 5775 5778 5781 5785 5788 5793 5797 5799 5803 5809 5813 5817 5824 5830 5834 5839 5845 5848 5853 5857 5862 5869 5872 5874 5877 5881 5884 5888 5888 5890 5894 5897 5898 5899 5900 5901 5902
5757 5758 5758 5759 5758 5759 5759 5761 5762 5766 5768 5771 5774 5777 5781 5786 5790 5794 5799 5803 5806 5810 5815 5821 5826 5831 5837 5842 5847 5851 5857 5863 5867 5870 5872 5876 5879 5881 5883 5886 5889 5892 5893 5895 5897 5900 5899
5751 5752 5753 5752 5752 5753 5753 5753 5754 5756 5759 5762 5765 5769 5773 5777 5781 5787 5793 5797 5800 5804 5808 5812 5818 5824 5830 5836 5842 5845 5851 5856 5861 5864 5867 5871 5874 5876 5879 5883 5885 5887 5890 5892 5894 5895 5896
5746 5747 5747 5747 5746 5745 5745 5744 5745 5747 5749 5752 5757 5760 5765 5769 5773 5779 5785 5791 5796 5799 5802 5805 5812 5817 5823 5829 5835 5840 5846 5851 5855 5858 5862 5865 5867 5872 5876 5881 5883 5884 5886 5888 5890 5891 5893
5739 5739 5739 5738 5736 5735 5735 5735 5736 5738 5741 5744 5747 5752 5756 5761 5765 5771 5779 5785 5790 5794 5796 5799 5805 5811 5818 5823 5829 5835 5841 5847 5850 5853 5857 5860 5863 5868 5872 5876 5878 5880 5882 5884 5885 5887 5888
5732 5732 5732 5731 5730 5730 5729 5730 5730 5731 5733 5736 5739 5744 5747 5753 5758 5764 5770 5776 5781 5785 5788 5792 5799 5804 5811 5818 5824 5831 5836 5842 5846 5850 5853 5856 5859 5863 5867 5871 5874 5876 5877 5879 5880 5881 5883
5724 5725 5725 5725 5725 5724 5724 5725 5725 5726 5727 5729 5733 5737 5740 5745 5750 5757 5761 5768 5772 5777 5783 5786 5793 5798 5806 5812 5819 5826 5830 5836 5841 5845 5850 5854 5857 5860 5862 5866 5870 5872 5873 5874 5875 5877 5878
5718 5719 5719 5719 5719 5719 5720 5721 5720 5721 5721 5724 5727 5731 5734 5739 5743 5748 5753 5758 5763 5769 5775 5780 5786 5791 5799 5806 5812 5819 5824 5829 5834 5839 5844 5848 5853 5856 5858 5861 5863 5865 5868 5869 5870 5872 5872
5711 5712 5713 5714 5714 5714 5715 5716 5716 5716 5716 5718 5721 5724 5728 5732 5736 5740 5745 5750 5753 5760 5768 5774 5779 5785 5792 5799 5806 5811 5817 5823 5827 5833 5837 5842 5846 5848 5852 5855 5857 5859 5862 5864 5865 5866 5866
5704 5706 5708 5708 5710 5710 5711 5711 5712 5712 5712 5713 5715 5718 5722 5726 5729 5734 5738 5744 5747 5753 5760 5768 5773 5778 5785 5791 5798 5804 5811 5817 5822 5826 5831 5836 5840 5844 5846 5848 5850 5854 5855 5857 5859 5860 5860
5696 5699 5701 5703 5704 5705 5706 5707 5708 5709 5708 5709 5710 5713 5717 5720 5724 5728 5732 5736 5742 5746 5752 5760 5767 5774 5778 5784 5791 5798 5804 5810 5814 5819 5824 5828 5831 5834 5837 5839 5842 5846 5849 5850 5852 5856 5854
5689 5692 5694 5696 5699 5700 5701 5702 5703 5705 5704 5704 5705 5707 5711 5714 5718 5722 5727 5732 5736 5741 5746 5753 5760 5765 5772 5778 5784 5790 5795 5801 5805 5810 5814 5818 5821 5824 5827 5830 5835 5840 5842 5845 5845 5845 5848
5681 5684 5687 5690 5692 5694 5695 5696 5698 5700 5700 5700 5701 5702 5705 5709 5713 5716 5721 5726 5730 5735 5742 5747 5752 5758 5764 5771 5776 5781 5786 5791 5795 5799 5804 5808 5810 5815 5820 5823 5828 5831 5835 5836 5837 5838 5838